Flag for Poland Weather past 2 weeks in Koszalin, Poland

Now
54 °F

Passing clouds.


Feels Like: 54 °F
Forecast: 56 / 78 °F
Wind: 2 mph from South

Location: Koszalin

Current Time: Aug 29, 2015 at 8:33:28 AM

Latest Report: Aug 29, 2015 at 7:00 AM


Visibility: 7 mi

Pressure: 30.21 "Hg

Humidity: 93%

Dew point: 52 °F

Location of KoszalinLocation

Historic Weather in Koszalin — Graph

°F

Koszalin temperature yesterday

Maximum temperature yesterday: 67 °F (at 4:00 PM)
Minimum temperature yesterday: 58 °F (at 11:00 PM)
Average temperature yesterday: 63 °F

Past Weeks' High & Low Weather Summary

 TemperatureHumidityPressure
High87 °F (Aug 15, 5:00 PM)94% (Aug 28, 3:00 AM)30.37 "Hg (Aug 28, 3:00 AM)
Low53 °F (Aug 29, 5:00 AM)24% (Aug 19, 5:00 PM)29.75 "Hg (Aug 15, 6:00 PM)
Average69 °F55%30.03 "Hg
* Reported Aug 14 7:00 AM — Aug 29 6:00 AM, Koszalin, Weather by CustomWeather, © 2015

Note: Actual official high and low records may vary slightly from our data, if they occured in-between our weather recording intervals... More about our weather records

Advertising

Koszalin weather history for previous 24 hours

 ConditionsComfort  
Time TempWeatherWind HumidityBarometerVisibility
6:00 AM
Sat, Aug 29
53 °FScattered clouds.2 mph93%30.19 "Hg6 mi
5:00 AM53 °FClear.2 mph92%30.18 "Hg7 mi
3:00 AM55 °FClear.1 mph89%30.16 "Hg11 mi
2:00 AM56 °FClear.2 mph86%30.15 "Hg15 mi
1:00 AM58 °FPassing clouds.2 mph82%30.13 "Hg19 mi
11:00 PM
Fri, Aug 28
58 °FClear.2 mph82%30.11 "Hg17 mi
9:00 PM61 °FPassing clouds.1 mph75%30.09 "Hg25 mi
8:00 PM61 °FPassing clouds.2 mph76%30.08 "Hg19 mi
7:00 PM64 °FPassing clouds.5 mph68%30.07 "Hg25 mi
6:00 PM65 °FPassing clouds.5 mph62%30.06 "Hg22 mi
5:00 PM66 °FPassing clouds.6 mph63%30.05 "Hg22 mi
4:00 PM67 °FPassing clouds.6 mph61%30.04 "Hg22 mi
3:00 PM67 °FScattered clouds.6 mph64%30.03 "Hg22 mi
2:00 PM66 °FScattered clouds.7 mph69%30.01 "Hg25 mi
1:00 PM66 °FScattered clouds.7 mph71%29.99 "Hg22 mi
12:00 PM63 °FScattered clouds.6 mph77%29.98 "Hg22 mi
11:00 AM63 °FPartly sunny.5 mph82%29.96 "Hg22 mi
10:00 AM61 °FPartly sunny.5 mph87%29.93 "Hg25 mi
9:00 AM60 °FLow clouds.5 mph93%29.91 "Hg25 mi
8:00 AM60 °FLight rain. Low clouds.5 mph94%29.89 "Hg3 mi
Weather by CustomWeather, © 2015

See weather overviewHow to use our weather pages